Date String (YYYY-MM-DD hh:mm:ss) UTC,Instrument flags,Ambient pressure (hPa),Sample flow (lpm),Bypass flow (lpm),Sample temperature (°C),Ambient temperature (°C),ASC tube jacket temperature (°C),LED temperature (°C),Box temperature (°C),Sample RH (%),Span deviation,Mass concentration (μg/m³),Mass concentration (μg/m³),Mass concentration (μg/m³)
DateTimeUTC,F1_M11,P_M11,Q1_M11,Q2_M11,T1_M11,T2_M11,T3_M11,T4_M11,T5_M11,U1_M11,ZSPAN_M11,X0_M11,X2_M11,X1_M11
2023-01-03 21:00:00,,0816.8,5.02,0.00,22.3,21.0,00.0,31.1,24.0,12.8,0000.0,0006.80,0004.44,0004.30
2023-01-03 21:01:00,,0817.0,5.03,0.00,22.3,21.0,00.0,31.1,24.0,12.8,0000.0,0006.86,0004.48,0004.34
2023-01-03 21:02:00,,0817.2,4.99,0.00,22.3,21.0,00.0,31.1,24.0,12.8,0000.0,0007.08,0004.57,0004.43
2023-01-03 21:03:00,,0816.9,5.02,0.00,22.3,21.0,00.0,31.1,24.0,12.9,0000.0,0007.37,0004.70,0004.52
2023-01-03 21:04:00,,0817.0,5.03,0.00,22.3,21.0,00.0,31.1,24.0,12.8,0000.0,0007.50,0004.79,0004.61
2023-01-03 21:05:00,,0816.9,5.00,0.00,22.3,21.0,00.0,31.1,24.0,12.8,0000.0,0007.58,0004.88,0004.70
2023-01-03 21:06:00,,0817.1,5.03,0.00,22.2,21.0,00.0,31.1,24.0,12.8,0000.0,0007.68,0004.97,0004.79
2023-01-03 21:07:00,,0816.9,5.04,0.00,22.2,20.9,00.0,31.1,24.0,12.8,0000.0,0007.79,0005.06,0004.86
2023-01-03 21:08:00,,0817.0,4.99,0.00,22.2,20.8,00.0,31.1,23.9,12.8,0000.0,0007.80,0005.10,0004.91
2023-01-03 21:09:00,,0816.9,4.97,0.00,22.2,20.7,00.0,31.1,23.9,12.8,0000.0,0007.81,0005.14,0004.95
2023-01-03 21:10:00,,0816.9,5.01,0.00,22.2,20.7,00.0,31.1,23.9,12.8,0000.0,0007.88,0005.20,0005.01
2023-01-03 21:11:00,,0816.9,5.04,0.00,22.2,20.7,00.0,31.1,23.9,12.8,0000.0,0007.94,0005.25,0005.05
2023-01-03 21:12:00,,0817.1,4.99,0.00,22.2,20.7,00.0,31.1,23.9,12.8,0000.0,0007.97,0005.28,0005.09
2023-01-03 21:13:00,,0816.9,4.95,0.00,22.2,20.7,00.0,31.1,23.9,12.8,0000.0,0008.00,0005.30,0005.12
2023-01-03 21:14:00,,0817.0,5.05,0.00,22.2,20.7,00.0,31.1,23.9,12.8,0000.0,0008.03,0005.33,0005.16
2023-01-03 21:15:00,,0817.2,5.00,0.00,22.2,20.7,00.0,31.1,23.9,12.9,0000.0,0008.09,0005.37,0005.19
2023-01-03 21:16:00,,0817.3,5.00,0.00,22.2,20.8,00.0,31.0,23.9,12.9,0000.0,0008.10,0005.38,0005.19
2023-01-03 21:17:00,,0816.8,4.97,0.00,22.2,20.8,00.0,31.0,23.9,12.8,0000.0,0008.09,0005.36,0005.18
2023-01-03 21:18:00,,0816.9,5.02,0.00,22.2,20.8,00.0,31.0,23.9,12.8,0000.0,0008.10,0005.36,0005.17
2023-01-03 21:19:00,,0816.9,5.01,0.00,22.1,20.8,00.0,31.0,23.9,12.8,0000.0,0008.10,0005.35,0005.14
2023-01-03 21:20:00,,0816.9,5.03,0.00,22.1,21.0,00.0,31.0,23.9,12.8,0000.0,0008.15,0005.35,0005.14
2023-01-03 21:21:00,,0816.8,4.96,0.00,22.2,21.9,00.0,31.0,24.2,12.8,0000.0,0008.10,0005.33,0005.14
2023-01-03 21:22:00,,0816.8,4.97,0.00,22.4,22.8,00.0,31.0,24.4,12.7,0000.0,0008.06,0005.32,0005.14
2023-01-03 21:23:00,,0816.8,5.03,0.00,22.5,22.9,00.0,31.1,24.5,12.6,0000.0,0008.10,0005.34,0005.15
2023-01-03 21:24:00,,0816.8,5.04,0.00,22.5,22.5,00.0,31.1,24.5,12.6,0000.0,0008.11,0005.35,0005.16
2023-01-03 21:25:00,,0816.8,4.98,0.00,22.5,21.9,00.0,31.2,24.3,12.6,0000.0,0008.16,0005.35,0005.16
2023-01-03 21:26:00,,0816.9,5.00,0.00,22.4,21.5,00.0,31.2,24.2,12.6,0000.0,0008.16,0005.36,0005.19
2023-01-03 21:27:00,,0816.9,5.02,0.00,22.4,21.3,00.0,31.2,24.1,12.6,0000.0,0008.11,0005.34,0005.19
2023-01-03 21:28:00,,0816.9,5.07,0.00,22.4,21.2,00.0,31.2,24.1,12.6,0000.0,0008.11,0005.35,0005.18
2023-01-03 21:29:00,,0816.8,4.98,0.00,22.4,21.1,00.0,31.2,24.1,12.6,0000.0,0008.09,0005.34,0005.18
2023-01-03 21:30:00,,0816.9,4.98,0.00,22.4,21.1,00.0,31.2,24.1,12.6,0000.0,0008.14,0005.35,0005.19
2023-01-03 21:31:00,,0816.9,4.97,0.00,22.3,21.0,00.0,31.2,24.1,12.6,0000.0,0008.07,0005.35,0005.20
2023-01-03 21:32:00,,0817.1,4.99,0.00,22.3,20.9,00.0,31.2,24.0,12.7,0000.0,0008.09,0005.38,0005.22
2023-01-03 21:33:00,,0817.0,5.03,0.00,22.3,20.8,00.0,31.2,24.0,12.7,0000.0,0008.09,0005.40,0005.23
2023-01-03 21:34:00,,0817.0,5.03,0.00,22.3,20.8,00.0,31.2,24.0,12.7,0000.0,0008.06,0005.40,0005.23
2023-01-03 21:35:00,,0817.1,5.00,0.00,22.3,20.8,00.0,31.2,24.0,12.7,0000.0,0008.02,0005.41,0005.25
2023-01-03 21:36:00,,0817.1,4.98,0.00,22.3,20.8,00.0,31.2,24.0,12.7,0000.0,0007.94,0005.42,0005.28
2023-01-03 21:37:00,,0817.0,4.98,0.00,22.3,20.9,00.0,31.2,24.0,12.8,0000.0,0008.01,0005.44,0005.28
2023-01-03 21:38:00,,0817.0,5.02,0.00,22.2,20.9,00.0,31.2,24.0,12.8,0000.0,0008.13,0005.49,0005.31
2023-01-03 21:39:00,,0817.0,5.01,0.00,22.2,20.9,00.0,31.1,24.0,12.8,0000.0,0008.14,0005.50,0005.34
2023-01-03 21:40:00,,0817.0,5.00,0.00,22.2,20.8,00.0,31.1,24.0,12.9,0000.0,0008.10,0005.51,0005.37
2023-01-03 21:41:00,,0817.1,4.97,0.00,22.2,20.8,00.0,31.1,23.9,12.9,0000.0,0008.03,0005.53,0005.40
2023-01-03 21:42:00,,0817.0,4.97,0.00,22.2,20.8,00.0,31.1,23.9,13.0,0000.0,0008.09,0005.54,0005.41
2023-01-03 21:43:00,,0816.9,5.01,0.00,22.2,20.8,00.0,31.1,23.9,12.9,0000.0,0008.45,0005.55,0005.40
2023-01-03 21:44:00,,0817.0,5.03,0.00,22.2,20.9,00.0,31.1,24.0,13.0,0000.0,0008.51,0005.57,0005.41
2023-01-03 21:45:00,,0817.1,4.99,0.00,22.2,20.8,00.0,31.1,23.9,13.0,0000.0,0008.52,0005.59,0005.43
2023-01-03 21:46:00,,0817.2,4.99,0.00,22.2,20.7,00.0,31.1,23.9,13.0,0000.0,0008.56,0005.62,0005.44
2023-01-03 21:47:00,,0817.1,4.96,0.00,22.2,20.8,00.0,31.1,23.9,13.0,0000.0,0008.59,0005.63,0005.44
2023-01-03 21:48:00,,0817.1,4.99,0.00,22.2,20.8,00.0,31.1,23.9,13.0,0000.0,0008.46,0005.62,0005.44
2023-01-03 21:49:00,,0817.1,5.03,0.00,22.2,20.8,00.0,31.1,23.9,13.0,0000.0,0008.41,0005.61,0005.45
2023-01-03 21:50:00,,0817.2,5.02,0.00,22.2,20.8,00.0,31.1,23.9,13.0,0000.0,0008.42,0005.62,0005.45
2023-01-03 21:51:00,,0817.3,4.96,0.00,22.2,20.8,00.0,31.1,23.9,13.0,0000.0,0008.37,0005.61,0005.44
2023-01-03 21:52:00,,0817.4,5.02,0.00,22.2,20.8,00.0,31.1,24.0,13.0,0000.0,0008.42,0005.63,0005.46
2023-01-03 21:53:00,,0817.2,5.02,0.00,22.2,20.8,00.0,31.1,23.9,13.1,0000.0,0008.44,0005.65,0005.48
2023-01-03 21:54:00,,0817.2,4.98,0.00,22.2,20.8,00.0,31.0,24.0,13.1,0000.0,0008.13,0005.67,0005.50
2023-01-03 21:55:00,,0817.3,4.99,0.00,22.2,20.8,00.0,31.0,23.9,13.1,0000.0,0008.17,0005.71,0005.54
2023-01-03 21:56:00,,0817.3,5.03,0.00,22.2,20.8,00.0,31.0,23.9,13.1,0000.0,0008.26,0005.76,0005.56
2023-01-03 21:57:00,,0817.2,4.96,0.00,22.2,20.8,00.0,31.0,23.9,13.2,0000.0,0008.33,0005.80,0005.61
2023-01-03 21:58:00,,0817.2,5.00,0.00,22.2,20.9,00.0,31.0,23.9,13.2,0000.0,0008.34,0005.84,0005.65
2023-01-03 21:59:00,,0817.2,5.05,0.00,22.2,21.6,00.0,31.0,24.1,13.2,0000.0,0008.42,0005.89,0005.68
